Regional Weather Roundup
Issued by NWS Bismarck, ND

Home | Current Version | Previous Version | Text Only | Print | Product List | Glossary On
Versions: 1 2 3 4 5 6 7 8 9 10 11 12 13 14 15 16 17 18 19 20 21 22 23 24 25 26 27 28 29 30 31 32 33 34 35 36 37 38 39 40 41 42 43 44 45 46 47 48 49 50
000
ASUS43 KBIS 221520
RWRBIS

NWR BROADCAST TEXT
NATIONAL WEATHER SERVICE BISMARCK ND
1000 AM CDT TUE JUL 22 2014

NOTE: "FAIR" INDICATES FEW OR NO CLOUDS BELOW 12,000 FEET WITH NO
SIGNIFICANT WEATHER AND/OR OBSTRUCTIONS TO VISIBILITY.


CITY           SKY/WX    TMP DP  RH WIND       PRES   REMARKS
WILLISTON      SUNNY     72  61  68 NE3       30.17R
MINOT          MOSUNNY   68  60  75 CALM      30.16R
MINOT AFB      MOSUNNY   68  65  90 N5        30.16R
BISMARCK       PTSUNNY   68  62  81 N6        30.19R
DICKINSON      PTSUNNY   67  63  87 E7        30.20R
GARRISON         N/A     69  62  78 CALM      30.17R
HETTINGER ARPT MOSUNNY   70  61  73 E8        30.21R
JAMESTOWN      SUNNY     70  59  68 N10       30.14R
CARRINGTON     FAIR      68  66  94 NW5       30.17R
CROSBY           N/A     66  66 100 E6        30.18S
HARVEY         CLOUDY    64  64 100 W5        30.17R
HAZEN          FAIR      68  63  83 SW5       30.19R
MANDAN         PTSUNNY   68  63  83 NE7       30.21R
RUGBY          FAIR      66  66 100 N6        30.15S
STANLEY        FAIR      66  66 100 E3        30.19R
TIOGA          FAIR      70  70 100 CALM      30.21S
WATFORD CITY   FAIR      70  64  83 E5        30.16S
$$

CITY           SKY/WX    TMP DP  RH WIND       PRES   REMARKS
GRAND FORKS    MOSUNNY   70  60  70 NW10      30.09R
GRAND FORKS AF SUNNY     70  61  72 NW9       30.11R
DEVILS LAKE    MOSUNNY   70  57  64 NE5       30.13R
FARGO          SUNNY     72  60  66 NW13      30.09R
CANDO          FAIR      68  61  77 NE7       30.15R
CAVALIER       FAIR      68  55  64 N10       30.11R
GRAFTON        FAIR      68  57  68 N10       30.10R
GWINNER        SUNNY     72  61  68 N13       30.14R
LANGDON        FAIR      68  55  64 N7        30.14R
ROLLA          FAIR      66  63  88 N6        30.17R
WALHALLA         N/A     68  57  68 N12         N/A
$$

CITY           SKY/WX    TMP DP  RH WIND       PRES   REMARKS
ABERDEEN       SUNNY     72  62  71 N18       30.13R
MOBRIDGE       MOSUNNY   69  62  78 N8        30.16R
BUFFALO          N/A     71  60  68 SE7       30.15S
RAPID CITY     SUNNY     73  65  75 N7        30.22S
GLASGOW        SUNNY     73  54  51 VRB6      30.16S
SIDNEY         SUNNY     72  63  73 S3        30.19S
WOLF POINT     SUNNY     71  56  58 N5        30.17S
GLENDIVE       SUNNY     75  61  60 CALM      30.19S
MILES CITY     MOSUNNY   73  62  68 S3        30.17R
BAKER          MOSUNNY   77  59  53 SE7       30.20S
$$

CITY           SKY/WX    TMP DP  RH WIND       PRES   REMARKS
BILLINGS       MOSUNNY   70  54  56 N5        30.19S
GREAT FALLS    CLOUDY    67  48  50 SW6       30.18R
REGINA         MOSUNNY   70  54  56 SE6       30.20R
ESTEVAN        PTSUNNY   70  59  68 SE2       30.18R
$$



USA.gov is the U.S. government's official web portal to all federal, state and local government web resources and services.